Year,Month,Day,Hour,Minute,Value (Times are PST for temperature in C)
2011,01,15,00,00,10.60
2011,01,15,00,01,10.60
2011,01,15,00,02,10.70
2011,01,15,00,03,10.70
2011,01,15,00,04,10.70
2011,01,15,00,05,10.60
2011,01,15,00,06,10.60
2011,01,15,00,07,10.60
2011,01,15,00,08,10.60
2011,01,15,00,09,10.70
2011,01,15,00,10,10.70
2011,01,15,00,11,10.70
2011,01,15,00,12,10.70
2011,01,15,00,13,10.70
2011,01,15,00,14,10.70
2011,01,15,00,15,10.70
2011,01,15,00,16,10.70
2011,01,15,00,17,10.70
2011,01,15,00,18,10.70
2011,01,15,00,19,10.70
2011,01,15,00,20,10.70
2011,01,15,00,21,10.70
2011,01,15,00,22,10.70
2011,01,15,00,23,10.70
2011,01,15,00,24,10.70
2011,01,15,00,25,10.80
2011,01,15,00,26,10.80
2011,01,15,00,27,10.80
2011,01,15,00,28,10.80
2011,01,15,00,29,10.80
2011,01,15,00,30,10.80
2011,01,15,00,31,10.80
2011,01,15,00,32,10.80
2011,01,15,00,33,10.80
2011,01,15,00,34,10.80
2011,01,15,00,35,10.80
2011,01,15,00,36,10.80
2011,01,15,00,37,10.80
2011,01,15,00,38,10.80
2011,01,15,00,39,10.80
2011,01,15,00,40,10.80
2011,01,15,00,41,10.80
2011,01,15,00,42,10.80
2011,01,15,00,43,10.80
2011,01,15,00,44,10.70
2011,01,15,00,45,10.70
2011,01,15,00,46,10.70
2011,01,15,00,47,10.70
2011,01,15,00,48,10.60
2011,01,15,00,49,10.60
2011,01,15,00,50,10.50
2011,01,15,00,51,10.50
2011,01,15,00,52,10.40
2011,01,15,00,53,10.40
2011,01,15,00,54,10.30
2011,01,15,00,55,10.30
2011,01,15,00,56,10.30
2011,01,15,00,57,10.30
2011,01,15,00,58,10.20
2011,01,15,00,59,10.20
2011,01,15,01,00,10.20
2011,01,15,01,01,10.20
2011,01,15,01,02,10.10
2011,01,15,01,03,10.10
2011,01,15,01,04,10.10
2011,01,15,01,05,10.20
2011,01,15,01,06,10.20
2011,01,15,01,07,10.10
2011,01,15,01,08,10.10
2011,01,15,01,09,10.00
2011,01,15,01,10,10.00
2011,01,15,01,11,9.90
2011,01,15,01,12,9.90
2011,01,15,01,13,9.90
2011,01,15,01,14,9.80
2011,01,15,01,15,9.80
2011,01,15,01,16,9.80
2011,01,15,01,17,9.70
2011,01,15,01,18,9.70
2011,01,15,01,19,9.70
2011,01,15,01,20,9.70
2011,01,15,01,21,9.70
2011,01,15,01,22,9.60
2011,01,15,01,23,9.60
2011,01,15,01,24,9.60
2011,01,15,01,25,9.50
2011,01,15,01,26,9.50
2011,01,15,01,27,9.40
2011,01,15,01,28,9.40
2011,01,15,01,29,9.40
2011,01,15,01,30,9.40
2011,01,15,01,31,9.40
2011,01,15,01,32,9.30
2011,01,15,01,33,9.30
2011,01,15,01,34,9.30
2011,01,15,01,35,9.30
2011,01,15,01,36,9.20
2011,01,15,01,37,9.20
2011,01,15,01,38,9.20
2011,01,15,01,39,9.20
2011,01,15,01,40,9.20
2011,01,15,01,41,9.10
2011,01,15,01,42,9.10
2011,01,15,01,43,9.00
2011,01,15,01,44,9.00
2011,01,15,01,45,8.90
2011,01,15,01,46,8.90
2011,01,15,01,47,8.90
2011,01,15,01,48,8.90
2011,01,15,01,49,9.00
2011,01,15,01,50,9.00
2011,01,15,01,51,9.00
2011,01,15,01,52,9.00
2011,01,15,01,53,9.10
2011,01,15,01,54,9.10
2011,01,15,01,55,9.10
2011,01,15,01,56,9.20
2011,01,15,01,57,9.20
2011,01,15,01,58,9.30
2011,01,15,01,59,9.30
2011,01,15,02,00,9.40
2011,01,15,02,01,9.40
2011,01,15,02,02,9.40
2011,01,15,02,03,9.40
2011,01,15,02,04,9.40
2011,01,15,02,05,9.50
2011,01,15,02,06,9.50
2011,01,15,02,07,9.60
2011,01,15,02,08,9.50
2011,01,15,02,09,9.60
2011,01,15,02,10,9.60
2011,01,15,02,11,9.60
2011,01,15,02,12,9.60
2011,01,15,02,13,9.60
2011,01,15,02,14,9.60
2011,01,15,02,15,9.60
2011,01,15,02,16,9.60
2011,01,15,02,17,9.60
2011,01,15,02,18,9.60
2011,01,15,02,19,9.60
2011,01,15,02,20,9.60
2011,01,15,02,21,9.60
2011,01,15,02,22,9.60
2011,01,15,02,23,9.60
2011,01,15,02,24,9.60
2011,01,15,02,25,9.60
2011,01,15,02,26,9.60
2011,01,15,02,27,9.60
2011,01,15,02,28,9.60
2011,01,15,02,29,9.60
2011,01,15,02,30,9.60
2011,01,15,02,31,9.60
2011,01,15,02,32,9.60
2011,01,15,02,33,9.60
2011,01,15,02,34,9.60
2011,01,15,02,35,9.60
2011,01,15,02,36,9.60
2011,01,15,02,37,9.60
2011,01,15,02,38,9.60
2011,01,15,02,39,9.60
2011,01,15,02,40,9.60
2011,01,15,02,41,9.60
2011,01,15,02,42,9.60
2011,01,15,02,43,9.60
2011,01,15,02,44,9.60
2011,01,15,02,45,9.60
2011,01,15,02,46,9.60
2011,01,15,02,47,9.60
2011,01,15,02,48,9.60
2011,01,15,02,49,9.60
2011,01,15,02,50,9.60
2011,01,15,02,51,9.60
2011,01,15,02,52,9.60
2011,01,15,02,53,9.60
2011,01,15,02,54,9.60
2011,01,15,02,55,9.60
2011,01,15,02,56,9.60
2011,01,15,02,57,9.70
2011,01,15,02,58,9.80
2011,01,15,02,59,9.80
2011,01,15,03,00,9.80
2011,01,15,03,01,9.80
2011,01,15,03,02,9.90
2011,01,15,03,06,9.90
2011,01,15,03,07,9.90
2011,01,15,03,08,9.90
2011,01,15,03,09,9.90
2011,01,15,03,10,9.90
2011,01,15,03,11,9.90
2011,01,15,03,12,9.90
2011,01,15,03,13,9.90
2011,01,15,03,14,9.80
2011,01,15,03,15,9.80
2011,01,15,03,16,9.80
2011,01,15,03,17,9.80
2011,01,15,03,18,9.80
2011,01,15,03,19,9.80
2011,01,15,03,20,9.80
2011,01,15,03,21,9.90
2011,01,15,03,22,9.90
2011,01,15,03,23,9.90
2011,01,15,03,24,10.00
2011,01,15,03,25,10.00
2011,01,15,03,26,10.00
2011,01,15,03,27,10.00
2011,01,15,03,28,10.00
2011,01,15,03,29,9.90
2011,01,15,03,30,9.90
2011,01,15,03,31,10.00
2011,01,15,03,32,10.00
2011,01,15,03,33,10.00
2011,01,15,03,34,10.00
2011,01,15,03,35,10.00
2011,01,15,03,36,10.00
2011,01,15,03,37,9.90
2011,01,15,03,38,9.90
2011,01,15,03,39,9.90
2011,01,15,03,40,9.90
2011,01,15,03,41,9.90
2011,01,15,03,42,9.90
2011,01,15,03,43,9.90
2011,01,15,03,44,9.90
2011,01,15,03,45,9.90
2011,01,15,03,46,9.90
2011,01,15,03,47,9.90
2011,01,15,03,48,9.90
2011,01,15,03,49,9.90
2011,01,15,03,50,9.90
2011,01,15,03,51,9.90
2011,01,15,03,52,9.90
2011,01,15,03,53,9.90
2011,01,15,03,54,9.90
2011,01,15,03,55,9.90
2011,01,15,03,56,9.90
2011,01,15,03,57,9.90
2011,01,15,03,58,9.90
2011,01,15,03,59,9.90
2011,01,15,04,00,9.90
2011,01,15,04,01,9.90
2011,01,15,04,02,9.90
2011,01,15,04,03,9.90
2011,01,15,04,04,9.90
2011,01,15,04,05,9.90
2011,01,15,04,06,9.90
2011,01,15,04,07,9.90
2011,01,15,04,08,9.90
2011,01,15,04,09,9.90
2011,01,15,04,10,9.90
2011,01,15,04,11,9.90
2011,01,15,04,12,9.90
2011,01,15,04,13,9.90
2011,01,15,04,14,9.90
2011,01,15,04,15,9.90
2011,01,15,04,16,9.90
2011,01,15,04,17,9.90
2011,01,15,04,18,9.90
2011,01,15,04,19,9.80
2011,01,15,04,20,9.80
2011,01,15,04,21,9.80
2011,01,15,04,22,9.80
2011,01,15,04,23,9.80
2011,01,15,04,24,9.80
2011,01,15,04,25,9.80
2011,01,15,04,26,9.80
2011,01,15,04,27,9.80
2011,01,15,04,28,9.80
2011,01,15,04,29,9.80
2011,01,15,04,30,9.70
2011,01,15,04,31,9.70
2011,01,15,04,32,9.70
2011,01,15,04,33,9.70
2011,01,15,04,34,9.60
2011,01,15,04,35,9.60
2011,01,15,04,36,9.60
2011,01,15,04,37,9.50
2011,01,15,04,38,9.50
2011,01,15,04,39,9.40
2011,01,15,04,40,9.40
2011,01,15,04,41,9.40
2011,01,15,04,42,9.30
2011,01,15,04,43,9.20
2011,01,15,04,44,9.20
2011,01,15,04,45,9.20
2011,01,15,04,46,9.20
2011,01,15,04,47,9.10
2011,01,15,04,48,9.10
2011,01,15,04,49,9.10
2011,01,15,04,50,9.10
2011,01,15,04,51,9.00
2011,01,15,04,52,9.00
2011,01,15,04,53,9.00
2011,01,15,04,54,9.00
2011,01,15,04,55,9.00
2011,01,15,04,56,9.00
2011,01,15,04,57,9.00
2011,01,15,04,58,8.90
2011,01,15,04,59,8.90
2011,01,15,05,00,8.90
2011,01,15,05,01,8.90
2011,01,15,05,02,8.80
2011,01,15,05,03,8.80
2011,01,15,05,04,8.70
2011,01,15,05,05,8.70
2011,01,15,05,06,8.70
2011,01,15,05,07,8.60
2011,01,15,05,08,8.60
2011,01,15,05,09,8.50
2011,01,15,05,10,8.40
2011,01,15,05,11,8.40
2011,01,15,05,12,8.30
2011,01,15,05,13,8.20
2011,01,15,05,14,8.20
2011,01,15,05,15,8.20
2011,01,15,05,16,8.10
2011,01,15,05,17,8.00
2011,01,15,05,18,8.00
2011,01,15,05,19,7.90
2011,01,15,05,20,7.90
2011,01,15,05,21,7.80
2011,01,15,05,22,7.80
2011,01,15,05,23,7.70
2011,01,15,05,24,7.70
2011,01,15,05,25,7.60
2011,01,15,05,26,7.60
2011,01,15,05,27,7.50
2011,01,15,05,28,7.50
2011,01,15,05,29,7.40
2011,01,15,05,30,7.40
2011,01,15,05,31,7.40
2011,01,15,05,32,7.30
2011,01,15,05,33,7.30
2011,01,15,05,34,7.30
2011,01,15,05,35,7.20
2011,01,15,05,36,7.20
2011,01,15,05,37,7.20
2011,01,15,05,38,7.20
2011,01,15,05,39,7.10
2011,01,15,05,40,7.10
2011,01,15,05,41,7.10
2011,01,15,05,42,7.00
2011,01,15,05,43,7.00
2011,01,15,05,44,6.90
2011,01,15,05,45,6.90
2011,01,15,05,46,6.80
2011,01,15,05,47,6.80
2011,01,15,05,48,6.70
2011,01,15,05,49,6.70
2011,01,15,05,50,6.70
2011,01,15,05,51,6.60
2011,01,15,05,52,6.60
2011,01,15,05,53,6.50
2011,01,15,05,54,6.50
2011,01,15,05,55,6.40
2011,01,15,05,56,6.40
2011,01,15,05,57,6.30
2011,01,15,05,58,6.30
2011,01,15,05,59,6.20
2011,01,15,06,00,6.20
2011,01,15,06,01,6.20
2011,01,15,06,02,6.20
2011,01,15,06,03,6.10
2011,01,15,06,04,6.10
2011,01,15,06,05,6.10
2011,01,15,06,06,6.00
2011,01,15,06,07,6.00
2011,01,15,06,08,6.00
2011,01,15,06,09,6.00
2011,01,15,06,10,6.00
2011,01,15,06,11,5.90
2011,01,15,06,12,5.90
2011,01,15,06,13,5.90
2011,01,15,06,14,5.90
2011,01,15,06,15,5.90
2011,01,15,06,16,5.90
2011,01,15,06,17,5.90
2011,01,15,06,18,5.90
2011,01,15,06,19,5.90
2011,01,15,06,20,5.90
2011,01,15,06,21,5.90
2011,01,15,06,22,6.00
2011,01,15,06,23,6.10
2011,01,15,06,24,6.10
2011,01,15,06,25,6.20
2011,01,15,06,26,6.20
2011,01,15,06,27,6.20
2011,01,15,06,28,6.20
2011,01,15,06,29,6.20
2011,01,15,06,30,6.30
2011,01,15,06,31,6.30
2011,01,15,06,32,6.20
2011,01,15,06,33,6.20
2011,01,15,06,34,6.20
2011,01,15,06,35,6.20
2011,01,15,06,36,6.10
2011,01,15,06,37,6.10
2011,01,15,06,38,6.10
2011,01,15,06,39,6.00
2011,01,15,06,40,6.00
2011,01,15,06,41,5.90
2011,01,15,06,42,5.90
2011,01,15,06,43,5.80
2011,01,15,06,44,5.70
2011,01,15,06,45,5.70
2011,01,15,06,46,5.60
2011,01,15,06,47,5.60
2011,01,15,06,48,5.50
2011,01,15,06,49,5.40
2011,01,15,06,50,5.40
2011,01,15,06,51,5.30
2011,01,15,06,52,5.30
2011,01,15,06,53,5.30
2011,01,15,06,54,5.20
2011,01,15,06,55,5.20
2011,01,15,06,56,5.20
2011,01,15,06,57,5.20
2011,01,15,06,58,5.20
2011,01,15,06,59,5.20
2011,01,15,07,00,5.20
2011,01,15,07,01,5.10
2011,01,15,07,02,5.10
2011,01,15,07,03,5.10
2011,01,15,07,04,5.10
2011,01,15,07,05,5.10
2011,01,15,07,06,5.10
2011,01,15,07,07,5.10
2011,01,15,07,08,5.10
2011,01,15,07,09,5.10
2011,01,15,07,10,5.10
2011,01,15,07,11,5.10
2011,01,15,07,12,5.00
2011,01,15,07,13,5.00
2011,01,15,07,14,5.00
2011,01,15,07,15,4.90
2011,01,15,07,16,4.90
2011,01,15,07,17,4.90
2011,01,15,07,18,4.90
2011,01,15,07,19,4.90
2011,01,15,07,20,4.90
2011,01,15,07,21,4.90
2011,01,15,07,22,4.90
2011,01,15,07,23,4.80
2011,01,15,07,24,4.80
2011,01,15,07,25,4.80
2011,01,15,07,26,4.80
2011,01,15,07,27,4.80
2011,01,15,07,28,4.80
2011,01,15,07,29,4.80
2011,01,15,07,30,4.80
2011,01,15,07,31,4.80
2011,01,15,07,32,4.80
2011,01,15,07,33,4.80
2011,01,15,07,34,4.80
2011,01,15,07,35,4.70
2011,01,15,07,36,4.70
2011,01,15,07,37,4.70
2011,01,15,07,38,4.70
2011,01,15,07,39,4.70
2011,01,15,07,40,4.70
2011,01,15,07,41,4.70
2011,01,15,07,42,4.70
2011,01,15,07,43,4.60
2011,01,15,07,44,4.60
2011,01,15,07,45,4.60
2011,01,15,07,46,4.60
2011,01,15,07,47,4.60
2011,01,15,07,48,4.60
2011,01,15,07,49,4.60
2011,01,15,07,50,4.60
2011,01,15,07,51,4.60
2011,01,15,07,52,4.50
2011,01,15,07,53,4.50
2011,01,15,07,54,4.50
2011,01,15,07,55,4.50
2011,01,15,07,56,4.40
2011,01,15,07,57,4.40
2011,01,15,07,58,4.40
2011,01,15,07,59,4.40
2011,01,15,08,00,4.40
2011,01,15,08,01,4.50
2011,01,15,08,02,4.50
2011,01,15,08,03,4.50
2011,01,15,08,04,4.50
2011,01,15,08,05,4.60
2011,01,15,08,06,4.60
2011,01,15,08,07,4.60
2011,01,15,08,08,4.60
2011,01,15,08,09,4.60
2011,01,15,08,10,4.60
2011,01,15,08,11,4.50
2011,01,15,08,12,4.50
2011,01,15,08,13,4.50
2011,01,15,08,14,4.50
2011,01,15,08,15,4.50
2011,01,15,08,16,4.50
2011,01,15,08,17,4.60
2011,01,15,08,18,4.60
2011,01,15,08,19,4.60
2011,01,15,08,20,4.60
2011,01,15,08,21,4.60
2011,01,15,08,22,4.60
2011,01,15,08,23,4.60
2011,01,15,08,24,4.60
2011,01,15,08,25,4.60
2011,01,15,08,26,4.60
2011,01,15,08,27,4.60
2011,01,15,08,28,4.60
2011,01,15,08,29,4.60
2011,01,15,08,30,4.50
2011,01,15,08,31,4.50
2011,01,15,08,32,4.50
2011,01,15,08,33,4.50
2011,01,15,08,34,4.50
2011,01,15,08,35,4.50
2011,01,15,08,36,4.50
2011,01,15,08,37,4.50
2011,01,15,08,38,4.50
2011,01,15,08,39,4.50
2011,01,15,08,40,4.50
2011,01,15,08,41,4.50
2011,01,15,08,42,4.50
2011,01,15,08,43,4.50
2011,01,15,08,44,4.50
2011,01,15,08,45,4.50
2011,01,15,08,46,4.50
2011,01,15,08,47,4.50
2011,01,15,08,48,4.50
2011,01,15,08,49,4.50
2011,01,15,08,50,4.50
2011,01,15,08,51,4.50
2011,01,15,08,52,4.50
2011,01,15,08,53,4.50
2011,01,15,08,54,4.50
2011,01,15,08,55,4.50
2011,01,15,08,56,4.60
2011,01,15,08,57,4.50
2011,01,15,08,58,4.60
2011,01,15,08,59,4.60
2011,01,15,09,00,4.60
2011,01,15,09,01,4.60
2011,01,15,09,02,4.60
2011,01,15,09,03,4.60
2011,01,15,09,04,4.70
2011,01,15,09,05,4.70
2011,01,15,09,06,4.70
2011,01,15,09,07,4.70
2011,01,15,09,08,4.70
2011,01,15,09,09,4.70
2011,01,15,09,10,4.70
2011,01,15,09,11,4.70
2011,01,15,09,12,4.70
2011,01,15,09,13,4.70
2011,01,15,09,14,4.70
2011,01,15,09,15,4.70
2011,01,15,09,16,4.70
2011,01,15,09,17,4.70
2011,01,15,09,18,4.70
2011,01,15,09,19,4.70
2011,01,15,09,20,4.70
2011,01,15,09,21,4.70
2011,01,15,09,22,4.70
2011,01,15,09,23,4.70
2011,01,15,09,24,4.70
2011,01,15,09,25,4.70
2011,01,15,09,26,4.70
2011,01,15,09,27,4.70
2011,01,15,09,28,4.70
2011,01,15,09,29,4.70
2011,01,15,09,30,4.70
2011,01,15,09,31,4.80
2011,01,15,09,32,4.80
2011,01,15,09,33,4.80
2011,01,15,09,34,4.90
2011,01,15,09,35,4.90
2011,01,15,09,36,4.90
2011,01,15,09,37,4.90
2011,01,15,09,38,4.90
2011,01,15,09,39,4.90
2011,01,15,09,40,4.90
2011,01,15,09,41,4.90
2011,01,15,09,42,4.90
2011,01,15,09,43,4.90
2011,01,15,09,44,4.90
2011,01,15,09,45,4.90
2011,01,15,09,46,4.90
2011,01,15,09,47,4.90
2011,01,15,09,48,5.00
2011,01,15,09,49,5.00
2011,01,15,09,50,5.00
2011,01,15,09,51,5.00
2011,01,15,09,52,5.10
2011,01,15,09,53,5.10
2011,01,15,09,54,5.10
2011,01,15,09,55,5.10
2011,01,15,09,56,5.10
2011,01,15,09,57,5.10
2011,01,15,09,58,5.10
2011,01,15,09,59,5.20
2011,01,15,10,00,5.20
2011,01,15,10,01,5.20
2011,01,15,10,02,5.20
2011,01,15,10,03,5.20
2011,01,15,10,04,5.20
2011,01,15,10,05,5.20
2011,01,15,10,06,5.20
2011,01,15,10,07,5.20
2011,01,15,10,08,5.30
2011,01,15,10,09,5.30
2011,01,15,10,10,5.30
2011,01,15,10,11,5.30
2011,01,15,10,12,5.30
2011,01,15,10,13,5.30
2011,01,15,10,14,5.30
2011,01,15,10,15,5.30
2011,01,15,10,16,5.40
2011,01,15,10,17,5.40
2011,01,15,10,18,5.40
2011,01,15,10,19,5.40
2011,01,15,10,20,5.50
2011,01,15,10,21,5.50
2011,01,15,10,22,5.60
2011,01,15,10,23,5.60
2011,01,15,10,24,5.60
2011,01,15,10,25,5.70
2011,01,15,10,26,5.70
2011,01,15,10,27,5.70
2011,01,15,10,28,5.70
2011,01,15,10,29,5.70
2011,01,15,10,30,5.80
2011,01,15,10,31,5.80
2011,01,15,10,32,5.80
2011,01,15,10,33,5.80
2011,01,15,10,34,5.80
2011,01,15,10,35,5.80
2011,01,15,10,36,5.80
2011,01,15,10,37,5.80
2011,01,15,10,38,5.80
2011,01,15,10,39,5.80
2011,01,15,10,40,5.80
2011,01,15,10,41,5.70
2011,01,15,10,42,5.70
2011,01,15,10,43,5.70
2011,01,15,10,44,5.70
2011,01,15,10,45,5.70
2011,01,15,10,46,5.70
2011,01,15,10,47,5.70
2011,01,15,10,48,5.70
2011,01,15,10,49,5.70
2011,01,15,10,50,5.70
2011,01,15,10,51,5.70
2011,01,15,10,52,5.70
2011,01,15,10,53,5.70
2011,01,15,10,54,5.70
2011,01,15,10,55,5.70
2011,01,15,10,56,5.70
2011,01,15,10,57,5.70
2011,01,15,10,58,5.70
2011,01,15,10,59,5.70
2011,01,15,11,00,5.70
2011,01,15,11,01,5.70
2011,01,15,11,02,5.70
2011,01,15,11,03,5.70
2011,01,15,11,04,5.80
2011,01,15,11,05,5.80
2011,01,15,11,06,5.80
2011,01,15,11,07,5.80
2011,01,15,11,08,5.80
2011,01,15,11,09,5.80
2011,01,15,11,10,5.80
2011,01,15,11,11,5.80
2011,01,15,11,12,5.80
2011,01,15,11,13,5.80
2011,01,15,11,14,5.90
2011,01,15,11,15,5.90
2011,01,15,11,16,5.90
2011,01,15,11,17,5.90
2011,01,15,11,18,5.90
2011,01,15,11,19,5.90
2011,01,15,11,20,5.90
2011,01,15,11,21,5.90
2011,01,15,11,22,5.90
2011,01,15,11,23,5.90
2011,01,15,11,24,5.90
2011,01,15,11,25,5.90
2011,01,15,11,26,5.90
2011,01,15,11,27,5.90
2011,01,15,11,28,5.90
2011,01,15,11,29,5.90
2011,01,15,11,30,5.90
2011,01,15,11,31,6.00
2011,01,15,11,32,6.00
2011,01,15,11,33,6.00
2011,01,15,11,34,6.00
2011,01,15,11,35,6.00
2011,01,15,11,36,6.00
2011,01,15,11,37,6.00
2011,01,15,11,38,6.10
2011,01,15,11,39,6.10
2011,01,15,11,40,6.10
2011,01,15,11,41,6.10
2011,01,15,11,42,6.10
2011,01,15,11,43,6.10
2011,01,15,11,44,6.10
2011,01,15,11,45,6.10
2011,01,15,11,46,6.10
2011,01,15,11,47,6.20
2011,01,15,11,48,6.20
2011,01,15,11,49,6.20
2011,01,15,11,50,6.20
2011,01,15,11,51,6.20
2011,01,15,11,52,6.20
2011,01,15,11,53,6.20
2011,01,15,11,54,6.20
2011,01,15,11,55,6.20
2011,01,15,11,56,6.20
2011,01,15,11,57,6.20
2011,01,15,11,58,6.20
2011,01,15,11,59,6.20
2011,01,15,12,00,6.20
2011,01,15,12,01,6.20
2011,01,15,12,02,6.20
2011,01,15,12,03,6.20
2011,01,15,12,04,6.30
2011,01,15,12,05,6.30
2011,01,15,12,06,6.30
2011,01,15,12,07,6.30
2011,01,15,12,08,6.30
2011,01,15,12,09,6.30
2011,01,15,12,10,6.30
2011,01,15,12,11,6.30
2011,01,15,12,12,6.40
2011,01,15,12,13,6.40
2011,01,15,12,14,6.40
2011,01,15,12,15,6.40
2011,01,15,12,16,6.40
2011,01,15,12,17,6.40
2011,01,15,12,18,6.40
2011,01,15,12,19,6.40
2011,01,15,12,20,6.40
2011,01,15,12,21,6.40
2011,01,15,12,22,6.40
2011,01,15,12,23,6.40
2011,01,15,12,24,6.40
2011,01,15,12,25,6.40
2011,01,15,12,26,6.40
2011,01,15,12,27,6.40
2011,01,15,12,28,6.40
2011,01,15,12,29,6.40
2011,01,15,12,30,6.40
2011,01,15,12,31,6.40
2011,01,15,12,32,6.40
2011,01,15,12,33,6.40
2011,01,15,12,34,6.40
2011,01,15,12,35,6.50
2011,01,15,12,36,6.40
2011,01,15,12,37,6.40
2011,01,15,12,38,6.40
2011,01,15,12,39,6.40
2011,01,15,12,40,6.30
2011,01,15,12,41,6.30
2011,01,15,12,42,6.30
2011,01,15,12,43,6.30
2011,01,15,12,44,6.30
2011,01,15,12,45,6.20
2011,01,15,12,46,6.20
2011,01,15,12,47,6.20
2011,01,15,12,48,6.20
2011,01,15,12,49,6.20
2011,01,15,12,50,6.10
2011,01,15,12,51,6.10
2011,01,15,12,52,6.10
2011,01,15,12,53,6.10
2011,01,15,12,54,6.10
2011,01,15,12,55,6.10
2011,01,15,12,56,6.10
2011,01,15,12,57,6.10
2011,01,15,12,58,6.00
2011,01,15,12,59,6.00
2011,01,15,13,00,6.00
2011,01,15,13,01,6.00
2011,01,15,13,02,6.00
2011,01,15,13,03,5.90
2011,01,15,13,04,5.90
2011,01,15,13,05,5.90
2011,01,15,13,06,5.90
2011,01,15,13,07,5.90
2011,01,15,13,08,5.90
2011,01,15,13,09,5.90
2011,01,15,13,10,5.90
2011,01,15,13,11,5.90
2011,01,15,13,12,5.90
2011,01,15,13,13,5.90
2011,01,15,13,14,5.90
2011,01,15,13,15,5.90
2011,01,15,13,16,5.90
2011,01,15,13,17,6.00
2011,01,15,13,18,6.00
2011,01,15,13,19,5.90
2011,01,15,13,20,5.90
2011,01,15,13,21,5.90
2011,01,15,13,22,5.90
2011,01,15,13,23,5.90
2011,01,15,13,24,5.90
2011,01,15,13,25,5.90
2011,01,15,13,26,5.90
2011,01,15,13,27,5.90
2011,01,15,13,28,5.90
2011,01,15,13,29,5.90
2011,01,15,13,30,5.90
2011,01,15,13,31,5.90
2011,01,15,13,32,5.90
2011,01,15,13,33,5.90
2011,01,15,13,34,5.90
2011,01,15,13,35,5.90
2011,01,15,13,36,5.90
2011,01,15,13,37,5.90
2011,01,15,13,38,5.90
2011,01,15,13,39,5.90
2011,01,15,13,40,5.90
2011,01,15,13,41,5.90
2011,01,15,13,42,5.90
2011,01,15,13,43,5.90
2011,01,15,13,44,5.90
2011,01,15,13,45,5.90
2011,01,15,13,46,5.90
2011,01,15,13,47,5.90
2011,01,15,13,48,5.90
2011,01,15,13,49,5.90
2011,01,15,13,50,5.80
2011,01,15,13,51,5.90
2011,01,15,13,52,5.90
2011,01,15,13,53,5.90
2011,01,15,13,54,5.90
2011,01,15,13,55,5.90
2011,01,15,13,56,5.90
2011,01,15,13,57,5.90
2011,01,15,13,58,5.90
2011,01,15,13,59,5.90
2011,01,15,14,00,5.90
2011,01,15,14,01,5.90
2011,01,15,14,02,5.90
2011,01,15,14,03,5.90
2011,01,15,14,04,5.90
2011,01,15,14,05,5.90
2011,01,15,14,06,5.90
2011,01,15,14,07,5.90
2011,01,15,14,08,6.00
2011,01,15,14,09,6.00
2011,01,15,14,10,6.00
2011,01,15,14,11,6.00
2011,01,15,14,12,6.00
2011,01,15,14,13,6.00
2011,01,15,14,14,6.00
2011,01,15,14,15,6.10
2011,01,15,14,16,6.10
2011,01,15,14,17,6.10
2011,01,15,14,18,6.10
2011,01,15,14,19,6.10
2011,01,15,14,20,6.10
2011,01,15,14,21,6.10
2011,01,15,14,22,6.10
2011,01,15,14,23,6.10
2011,01,15,14,24,6.10
2011,01,15,14,25,6.10
2011,01,15,14,26,6.10
2011,01,15,14,27,6.10
2011,01,15,14,28,6.10
2011,01,15,14,29,6.10
2011,01,15,14,30,6.10
2011,01,15,14,31,6.00
2011,01,15,14,32,6.00
2011,01,15,14,33,6.00
2011,01,15,14,34,6.00
2011,01,15,14,35,6.00
2011,01,15,14,36,6.00
2011,01,15,14,37,6.00
2011,01,15,14,38,6.00
2011,01,15,14,39,6.00
2011,01,15,14,40,6.00
2011,01,15,14,41,6.00
2011,01,15,14,42,6.00
2011,01,15,14,43,5.90
2011,01,15,14,44,6.00
2011,01,15,14,45,6.00
2011,01,15,14,46,6.00
2011,01,15,14,47,6.00
2011,01,15,14,48,6.00
2011,01,15,14,49,6.00
2011,01,15,14,50,6.10
2011,01,15,14,51,6.10
2011,01,15,14,52,6.10
2011,01,15,14,53,6.10
2011,01,15,14,54,6.10
2011,01,15,14,55,6.10
2011,01,15,14,56,6.10
2011,01,15,14,57,6.10
2011,01,15,14,58,6.10
2011,01,15,14,59,6.10
2011,01,15,15,00,6.10
2011,01,15,15,01,6.10
2011,01,15,15,02,6.10
2011,01,15,15,03,6.10
2011,01,15,15,04,6.10
2011,01,15,15,05,6.20
2011,01,15,15,06,6.20
2011,01,15,15,07,6.20
2011,01,15,15,08,6.20
2011,01,15,15,09,6.20
2011,01,15,15,10,6.20
2011,01,15,15,11,6.20
2011,01,15,15,12,6.20
2011,01,15,15,13,6.20
2011,01,15,15,14,6.20
2011,01,15,15,15,6.20
2011,01,15,15,16,6.20
2011,01,15,15,17,6.20
2011,01,15,15,18,6.20
2011,01,15,15,19,6.20
2011,01,15,15,20,6.20
2011,01,15,15,21,6.20
2011,01,15,15,22,6.20
2011,01,15,15,23,6.20
2011,01,15,15,24,6.20
2011,01,15,15,25,6.20
2011,01,15,15,26,6.20
2011,01,15,15,27,6.20
2011,01,15,15,28,6.20
2011,01,15,15,29,6.20
2011,01,15,15,30,6.20
2011,01,15,15,31,6.20
2011,01,15,15,32,6.20
2011,01,15,15,33,6.10
2011,01,15,15,34,6.10
2011,01,15,15,35,6.10
2011,01,15,15,36,6.20
2011,01,15,15,37,6.20
2011,01,15,15,38,6.20
2011,01,15,15,39,6.20
2011,01,15,15,40,6.20
2011,01,15,15,41,6.20
2011,01,15,15,42,6.20
2011,01,15,15,43,6.20
2011,01,15,15,44,6.30
2011,01,15,15,45,6.30
2011,01,15,15,46,6.30
2011,01,15,15,47,6.30
2011,01,15,15,48,6.30
2011,01,15,15,49,6.30
2011,01,15,15,50,6.30
2011,01,15,15,51,6.40
2011,01,15,15,52,6.40
2011,01,15,15,53,6.30
2011,01,15,15,54,6.30
2011,01,15,15,55,6.30
2011,01,15,15,56,6.30
2011,01,15,15,57,6.20
2011,01,15,15,58,6.20
2011,01,15,15,59,6.20
2011,01,15,16,00,6.10
2011,01,15,16,01,6.10
2011,01,15,16,02,6.00
2011,01,15,16,03,6.00
2011,01,15,16,04,6.00
2011,01,15,16,05,6.00
2011,01,15,16,06,6.00
2011,01,15,16,07,6.00
2011,01,15,16,08,6.00
2011,01,15,16,09,6.00
2011,01,15,16,10,6.00
2011,01,15,16,11,6.00
2011,01,15,16,12,6.00
2011,01,15,16,13,6.00
2011,01,15,16,14,6.10
2011,01,15,16,15,6.10
2011,01,15,16,16,6.00
2011,01,15,16,17,6.00
2011,01,15,16,18,6.00
2011,01,15,16,19,6.00
2011,01,15,16,20,6.00
2011,01,15,16,21,6.00
2011,01,15,16,22,6.00
2011,01,15,16,23,6.00
2011,01,15,16,24,6.00
2011,01,15,16,25,6.00
2011,01,15,16,26,6.00
2011,01,15,16,27,6.10
2011,01,15,16,28,6.10
2011,01,15,16,29,6.10
2011,01,15,16,30,6.10
2011,01,15,16,31,6.10
2011,01,15,16,32,6.10
2011,01,15,16,33,6.10
2011,01,15,16,34,6.10
2011,01,15,16,35,6.10
2011,01,15,16,36,6.10
2011,01,15,16,37,6.10
2011,01,15,16,38,6.10
2011,01,15,16,39,6.10
2011,01,15,16,40,6.10
2011,01,15,16,41,6.10
2011,01,15,16,42,6.20
2011,01,15,16,43,6.20
2011,01,15,16,44,6.20
2011,01,15,16,45,6.20
2011,01,15,16,46,6.20
2011,01,15,16,47,6.20
2011,01,15,16,48,6.20
2011,01,15,16,49,6.20
2011,01,15,16,50,6.20
2011,01,15,16,51,6.20
2011,01,15,16,52,6.20
2011,01,15,16,53,6.20
2011,01,15,16,54,6.20
2011,01,15,16,55,6.20
2011,01,15,16,56,6.20
2011,01,15,16,57,6.20
2011,01,15,16,58,6.20
2011,01,15,16,59,6.20
2011,01,15,17,00,6.20
2011,01,15,17,01,6.20
2011,01,15,17,02,6.20
2011,01,15,17,03,6.20
2011,01,15,17,04,6.20
2011,01,15,17,05,6.10
2011,01,15,17,06,6.10
2011,01,15,17,07,6.10
2011,01,15,17,08,6.10
2011,01,15,17,09,6.10
2011,01,15,17,10,6.10
2011,01,15,17,11,6.10
2011,01,15,17,12,6.10
2011,01,15,17,13,6.10
2011,01,15,17,14,6.10
2011,01,15,17,15,6.10
2011,01,15,17,16,6.10
2011,01,15,17,17,6.10
2011,01,15,17,18,6.10
2011,01,15,17,19,6.10
2011,01,15,17,20,6.10
2011,01,15,17,21,6.10
2011,01,15,17,22,6.10
2011,01,15,17,23,6.10
2011,01,15,17,24,6.10
2011,01,15,17,25,6.20
2011,01,15,17,26,6.10
2011,01,15,17,27,6.10
2011,01,15,17,28,6.10
2011,01,15,17,29,6.10
2011,01,15,17,30,6.00
2011,01,15,17,31,6.00
2011,01,15,17,32,6.00
2011,01,15,17,33,6.00
2011,01,15,17,34,6.10
2011,01,15,17,35,6.10
2011,01,15,17,36,6.10
2011,01,15,17,37,6.10
2011,01,15,17,38,6.10
2011,01,15,17,39,6.10
2011,01,15,17,40,6.10
2011,01,15,17,41,6.00
2011,01,15,17,42,6.00
2011,01,15,17,43,6.00
2011,01,15,17,44,6.10
2011,01,15,17,45,6.10
2011,01,15,17,46,6.20
2011,01,15,17,47,6.30
2011,01,15,17,48,6.30
2011,01,15,17,49,6.30
2011,01,15,17,50,6.30
2011,01,15,17,51,6.30
2011,01,15,17,52,6.30
2011,01,15,17,53,6.30
2011,01,15,17,54,6.20
2011,01,15,17,55,6.20
2011,01,15,17,56,6.20
2011,01,15,17,57,6.20
2011,01,15,17,58,6.20
2011,01,15,17,59,6.20
2011,01,15,18,00,6.10
2011,01,15,18,01,6.10
2011,01,15,18,02,6.10
2011,01,15,18,03,6.10
2011,01,15,18,04,6.10
2011,01,15,18,05,6.10
2011,01,15,18,06,6.10